Location: Katowice
(50.2611°N, 19.0242°E)
Time: 05:07:36
(UTC+02:00)

ISS - Pass Details

Date: 26 March 2019
Orbit: 408 x 410 km, 51.6° (Epoch: 21 April)

Event Time Altitude Azimuth Distance (km) Brightness Sun altitude
Rises 19:23:32 0° 251° (WSW) 2,332 0.9 -12.9°
Reaches altitude 10° 19:25:37 10° 251° (WSW) 1,472 -0.2 -13.2°
Maximum altitude 19:28:55 84° 165° (SSE) 416 -3.9 -13.7°
Enters shadow 19:30:49 23° 76° (ENE) 910 -2.5 -14.0°
